sat.trackr.live / text

‹ back to catalog

ARABSAT-5C

NORAD 37810 · 2011-049B

PAYLOAD ACTIVE UNKNOWN

§ Identity

Operator
Country
AB
Launch date
2011-09-21
Launch site
FRGUI
Launch vehicle
Mass (kg)
RCS (m²)
11.15

Purposes: comms

External: N2YO · Heavens-Above · Gunter

§ Orbital elements

Epoch: 2026-05-25T03:50:16.719072Z

Period
1,436.08 min
Inclination
0.0496°
Eccentricity
0.0003278
Mean motion
1.00273137 rev/d
Perigee alt
35,772.4 km
Apogee alt
35,800.0 km
Semi-major
42,164.4 km
B*
0.0000e+0
RAAN
350.2033°
Arg perigee
94.2539°
Mean anomaly
235.8875°
Rev number
5,380

§ Raw data

ARABSAT-5C1 37810U 11049B   26145.15991573  .00000121  00000+0  00000+0 0  99942 37810   0.0496 350.2033 0003278  94.2539 235.8875  1.00273137 53806

JSON: /api/v1/satellites/37810 · /tle

For live sub-satellite position, see the globe view (requires WebGL).

§ Visibility from observer

Set your observer location to see the next 7 days of passes ≥ 10°. The values pass through the URL so the page stays shareable.

No JS? Fill the form by hand. The geolocation button needs JavaScript.